Year,Month,Day,Hour,Minute,Value (Times are PST for temperature in C)
2019,06,24,00,00,10.20
2019,06,24,00,01,10.20
2019,06,24,00,02,10.20
2019,06,24,00,03,10.20
2019,06,24,00,04,10.20
2019,06,24,00,05,10.20
2019,06,24,00,06,10.20
2019,06,24,00,07,10.10
2019,06,24,00,08,10.10
2019,06,24,00,09,10.10
2019,06,24,00,10,10.10
2019,06,24,00,11,10.00
2019,06,24,00,12,10.00
2019,06,24,00,13,9.90
2019,06,24,00,14,9.90
2019,06,24,00,15,9.90
2019,06,24,00,16,9.90
2019,06,24,00,17,9.80
2019,06,24,00,18,9.80
2019,06,24,00,19,9.80
2019,06,24,00,20,9.80
2019,06,24,00,21,9.80
2019,06,24,00,22,9.80
2019,06,24,00,23,9.80
2019,06,24,00,24,9.80
2019,06,24,00,25,9.70
2019,06,24,00,26,9.70
2019,06,24,00,27,9.70
2019,06,24,00,28,9.70
2019,06,24,00,29,9.70
2019,06,24,00,30,9.70
2019,06,24,00,31,9.60
2019,06,24,00,32,9.60
2019,06,24,00,33,9.60
2019,06,24,00,34,9.60
2019,06,24,00,35,9.50
2019,06,24,00,36,9.50
2019,06,24,00,37,9.50
2019,06,24,00,38,9.40
2019,06,24,00,39,9.40
2019,06,24,00,40,9.40
2019,06,24,00,41,9.40
2019,06,24,00,42,9.40
2019,06,24,00,43,9.30
2019,06,24,00,44,9.30
2019,06,24,00,45,9.30
2019,06,24,00,46,9.30
2019,06,24,00,47,9.30
2019,06,24,00,48,9.30
2019,06,24,00,49,9.30
2019,06,24,00,50,9.20
2019,06,24,00,51,9.20
2019,06,24,00,52,9.20
2019,06,24,00,53,9.20
2019,06,24,00,54,9.20
2019,06,24,00,55,9.20
2019,06,24,00,56,9.20
2019,06,24,00,57,9.20
2019,06,24,00,58,9.20
2019,06,24,00,59,9.20
2019,06,24,01,00,9.20
2019,06,24,01,01,9.10
2019,06,24,01,02,9.10
2019,06,24,01,03,9.10
2019,06,24,01,04,9.10
2019,06,24,01,05,9.10
2019,06,24,01,06,9.10
2019,06,24,01,07,9.10
2019,06,24,01,08,9.10
2019,06,24,01,09,9.10
2019,06,24,01,10,9.10
2019,06,24,01,11,9.10
2019,06,24,01,12,9.10
2019,06,24,01,13,9.00
2019,06,24,01,14,9.00
2019,06,24,01,15,9.00
2019,06,24,01,16,9.00
2019,06,24,01,17,8.90
2019,06,24,01,18,8.90
2019,06,24,01,19,8.90
2019,06,24,01,20,8.90
2019,06,24,01,21,8.90
2019,06,24,01,22,8.90
2019,06,24,01,23,8.90
2019,06,24,01,24,8.90
2019,06,24,01,25,8.90
2019,06,24,01,26,8.90
2019,06,24,01,27,8.90
2019,06,24,01,28,8.90
2019,06,24,01,29,8.90
2019,06,24,01,30,8.80
2019,06,24,01,31,8.80
2019,06,24,01,32,8.80
2019,06,24,01,33,8.80
2019,06,24,01,34,8.80
2019,06,24,01,35,8.80
2019,06,24,01,36,8.80
2019,06,24,01,37,8.80
2019,06,24,01,38,8.80
2019,06,24,01,39,8.80
2019,06,24,01,40,8.80
2019,06,24,01,41,8.80
2019,06,24,01,42,8.80
2019,06,24,01,43,8.80
2019,06,24,01,44,8.80
2019,06,24,01,45,8.80
2019,06,24,01,46,8.80
2019,06,24,01,47,8.80
2019,06,24,01,48,8.80
2019,06,24,01,49,8.80
2019,06,24,01,50,8.80
2019,06,24,01,51,8.80
2019,06,24,01,52,8.80
2019,06,24,01,53,8.80
2019,06,24,01,54,8.80
2019,06,24,01,55,8.70
2019,06,24,01,56,8.70
2019,06,24,01,57,8.70
2019,06,24,01,58,8.70
2019,06,24,01,59,8.70
2019,06,24,02,00,8.70
2019,06,24,02,01,8.70
2019,06,24,02,02,8.60
2019,06,24,02,03,8.60
2019,06,24,02,04,8.60
2019,06,24,02,05,8.60
2019,06,24,02,06,8.60
2019,06,24,02,07,8.60
2019,06,24,02,08,8.60
2019,06,24,02,09,8.50
2019,06,24,02,10,8.50
2019,06,24,02,11,8.50
2019,06,24,02,12,8.50
2019,06,24,02,13,8.50
2019,06,24,02,14,8.50
2019,06,24,02,15,8.50
2019,06,24,02,16,8.50
2019,06,24,02,17,8.60
2019,06,24,02,18,8.60
2019,06,24,02,19,8.60
2019,06,24,02,20,8.60
2019,06,24,02,21,8.60
2019,06,24,02,22,8.60
2019,06,24,02,23,8.60
2019,06,24,02,24,8.60
2019,06,24,02,25,8.60
2019,06,24,02,26,8.50
2019,06,24,02,27,8.50
2019,06,24,02,28,8.50
2019,06,24,02,29,8.50
2019,06,24,02,30,8.50
2019,06,24,02,31,8.50
2019,06,24,02,32,8.50
2019,06,24,02,33,8.50
2019,06,24,02,34,8.50
2019,06,24,02,35,8.50
2019,06,24,02,36,8.50
2019,06,24,02,37,8.50
2019,06,24,02,38,8.40
2019,06,24,02,39,8.40
2019,06,24,02,40,8.40
2019,06,24,02,41,8.40
2019,06,24,02,42,8.40
2019,06,24,02,43,8.40
2019,06,24,02,44,8.40
2019,06,24,02,45,8.40
2019,06,24,02,46,8.40
2019,06,24,02,47,8.50
2019,06,24,02,48,8.50
2019,06,24,02,49,8.50
2019,06,24,02,50,8.50
2019,06,24,02,51,8.50
2019,06,24,02,52,8.50
2019,06,24,02,53,8.50
2019,06,24,02,54,8.60
2019,06,24,02,55,8.60
2019,06,24,02,56,8.60
2019,06,24,02,57,8.60
2019,06,24,02,58,8.60
2019,06,24,02,59,8.60
2019,06,24,03,00,8.60
2019,06,24,03,01,8.60
2019,06,24,03,02,8.60
2019,06,24,03,03,8.60
2019,06,24,03,04,8.60
2019,06,24,03,05,8.60
2019,06,24,03,06,8.70
2019,06,24,03,07,8.70
2019,06,24,03,08,8.70
2019,06,24,03,09,8.70
2019,06,24,03,10,8.70
2019,06,24,03,11,8.70
2019,06,24,03,12,8.70
2019,06,24,03,13,8.70
2019,06,24,03,14,8.70
2019,06,24,03,15,8.70
2019,06,24,03,16,8.70
2019,06,24,03,17,8.70
2019,06,24,03,18,8.70
2019,06,24,03,19,8.70
2019,06,24,03,20,8.80
2019,06,24,03,21,8.80
2019,06,24,03,22,8.80
2019,06,24,03,23,8.80
2019,06,24,03,24,8.80
2019,06,24,03,25,8.80
2019,06,24,03,26,8.80
2019,06,24,03,27,8.80
2019,06,24,03,28,8.80
2019,06,24,03,29,8.80
2019,06,24,03,30,8.80
2019,06,24,03,31,8.90
2019,06,24,03,32,8.90
2019,06,24,03,33,8.90
2019,06,24,03,34,8.90
2019,06,24,03,35,8.90
2019,06,24,03,36,8.90
2019,06,24,03,37,8.90
2019,06,24,03,38,8.90
2019,06,24,03,39,8.90
2019,06,24,03,40,8.90
2019,06,24,03,41,8.90
2019,06,24,03,42,9.00
2019,06,24,03,43,9.00
2019,06,24,03,44,9.00
2019,06,24,03,45,9.00
2019,06,24,03,46,9.00
2019,06,24,03,47,9.00
2019,06,24,03,48,9.00
2019,06,24,03,49,9.00
2019,06,24,03,50,9.00
2019,06,24,03,51,9.00
2019,06,24,03,52,9.10
2019,06,24,03,53,9.10
2019,06,24,03,54,9.00
2019,06,24,03,55,9.10
2019,06,24,03,56,9.10
2019,06,24,03,57,9.10
2019,06,24,03,58,9.10
2019,06,24,03,59,9.10
2019,06,24,04,00,9.10
2019,06,24,04,01,9.10
2019,06,24,04,02,9.10
2019,06,24,04,03,9.10
2019,06,24,04,04,9.10
2019,06,24,04,05,9.10
2019,06,24,04,06,9.10
2019,06,24,04,07,9.10
2019,06,24,04,08,9.10
2019,06,24,04,09,9.10
2019,06,24,04,10,9.10
2019,06,24,04,11,9.10
2019,06,24,04,12,9.10
2019,06,24,04,13,9.10
2019,06,24,04,14,9.20
2019,06,24,04,15,9.20
2019,06,24,04,16,9.20
2019,06,24,04,17,9.20
2019,06,24,04,18,9.20
2019,06,24,04,19,9.20
2019,06,24,04,20,9.20
2019,06,24,04,21,9.20
2019,06,24,04,22,9.20
2019,06,24,04,23,9.20
2019,06,24,04,24,9.20
2019,06,24,04,25,9.20
2019,06,24,04,26,9.20
2019,06,24,04,27,9.20
2019,06,24,04,28,9.20
2019,06,24,04,29,9.20
2019,06,24,04,30,9.20
2019,06,24,04,31,9.20
2019,06,24,04,32,9.20
2019,06,24,04,33,9.20
2019,06,24,04,34,9.20
2019,06,24,04,35,9.20
2019,06,24,04,36,9.20
2019,06,24,04,37,9.20
2019,06,24,04,38,9.20
2019,06,24,04,39,9.20
2019,06,24,04,40,9.20
2019,06,24,04,41,9.20
2019,06,24,04,42,9.20
2019,06,24,04,43,9.20
2019,06,24,04,44,9.20
2019,06,24,04,45,9.20
2019,06,24,04,46,9.20
2019,06,24,04,47,9.20
2019,06,24,04,48,9.20
2019,06,24,04,49,9.20
2019,06,24,04,50,9.20
2019,06,24,04,51,9.20
2019,06,24,04,52,9.20
2019,06,24,04,53,9.30
2019,06,24,04,54,9.30
2019,06,24,04,55,9.20
2019,06,24,04,56,9.20
2019,06,24,04,57,9.30
2019,06,24,04,58,9.30
2019,06,24,04,59,9.30
2019,06,24,05,00,9.30
2019,06,24,05,01,9.30
2019,06,24,05,02,9.30
2019,06,24,05,03,9.30
2019,06,24,05,04,9.30
2019,06,24,05,05,9.30
2019,06,24,05,06,9.30
2019,06,24,05,07,9.30
2019,06,24,05,08,9.30
2019,06,24,05,09,9.30
2019,06,24,05,10,9.30
2019,06,24,05,11,9.30
2019,06,24,05,12,9.30
2019,06,24,05,13,9.30
2019,06,24,05,14,9.30
2019,06,24,05,15,9.30
2019,06,24,05,16,9.30
2019,06,24,05,17,9.30
2019,06,24,05,18,9.30
2019,06,24,05,19,9.30
2019,06,24,05,20,9.30
2019,06,24,05,21,9.30
2019,06,24,05,22,9.30
2019,06,24,05,23,9.30
2019,06,24,05,24,9.30
2019,06,24,05,25,9.40
2019,06,24,05,26,9.40
2019,06,24,05,27,9.40
2019,06,24,05,28,9.40
2019,06,24,05,29,9.40
2019,06,24,05,30,9.40
2019,06,24,05,31,9.40
2019,06,24,05,32,9.40
2019,06,24,05,33,9.40
2019,06,24,05,34,9.40
2019,06,24,05,35,9.40
2019,06,24,05,36,9.40
2019,06,24,05,37,9.40
2019,06,24,05,38,9.40
2019,06,24,05,39,9.40
2019,06,24,05,40,9.40
2019,06,24,05,41,9.40
2019,06,24,05,42,9.40
2019,06,24,05,43,9.40
2019,06,24,05,44,9.40
2019,06,24,05,45,9.40
2019,06,24,05,46,9.40
2019,06,24,05,47,9.40
2019,06,24,05,48,9.50
2019,06,24,05,49,9.50
2019,06,24,05,50,9.50
2019,06,24,05,51,9.50
2019,06,24,05,52,9.50
2019,06,24,05,53,9.60
2019,06,24,05,54,9.60
2019,06,24,05,55,9.60
2019,06,24,05,56,9.60
2019,06,24,05,57,9.60
2019,06,24,05,58,9.70
2019,06,24,05,59,9.70
2019,06,24,06,00,9.70
2019,06,24,06,01,9.70
2019,06,24,06,02,9.70
2019,06,24,06,03,9.80
2019,06,24,06,04,9.80
2019,06,24,06,05,9.80
2019,06,24,06,06,9.80
2019,06,24,06,07,9.80
2019,06,24,06,08,9.80
2019,06,24,06,09,9.80
2019,06,24,06,10,9.90
2019,06,24,06,11,9.90
2019,06,24,06,12,9.90
2019,06,24,06,13,9.90
2019,06,24,06,14,9.90
2019,06,24,06,15,10.00
2019,06,24,06,16,10.00
2019,06,24,06,17,10.00
2019,06,24,06,18,10.10
2019,06,24,06,19,10.10
2019,06,24,06,20,10.10
2019,06,24,06,21,10.10
2019,06,24,06,22,10.20
2019,06,24,06,23,10.20
2019,06,24,06,24,10.20
2019,06,24,06,25,10.30
2019,06,24,06,26,10.30
2019,06,24,06,27,10.30
2019,06,24,06,28,10.30
2019,06,24,06,29,10.30
2019,06,24,06,30,10.30
2019,06,24,06,31,10.40
2019,06,24,06,32,10.40
2019,06,24,06,33,10.40
2019,06,24,06,34,10.40
2019,06,24,06,35,10.40
2019,06,24,06,36,10.50
2019,06,24,06,37,10.50
2019,06,24,06,38,10.50
2019,06,24,06,39,10.60
2019,06,24,06,40,10.60
2019,06,24,06,41,10.60
2019,06,24,06,42,10.60
2019,06,24,06,43,10.60
2019,06,24,06,44,10.70
2019,06,24,06,45,10.70
2019,06,24,06,46,10.70
2019,06,24,06,47,10.70
2019,06,24,06,48,10.70
2019,06,24,06,49,10.70
2019,06,24,06,50,10.80
2019,06,24,06,51,10.80
2019,06,24,06,52,10.80
2019,06,24,06,53,10.80
2019,06,24,06,54,10.80
2019,06,24,06,55,10.80
2019,06,24,06,56,10.90
2019,06,24,06,57,10.90
2019,06,24,06,58,10.90
2019,06,24,06,59,10.90
2019,06,24,07,00,11.00
2019,06,24,07,01,11.00
2019,06,24,07,02,11.00
2019,06,24,07,03,11.10
2019,06,24,07,04,11.10
2019,06,24,07,05,11.10
2019,06,24,07,06,11.10
2019,06,24,07,07,11.20
2019,06,24,07,08,11.20
2019,06,24,07,09,11.20
2019,06,24,07,10,11.20
2019,06,24,07,11,11.30
2019,06,24,07,12,11.30
2019,06,24,07,13,11.30
2019,06,24,07,14,11.30
2019,06,24,07,15,11.30
2019,06,24,07,16,11.30
2019,06,24,07,17,11.40
2019,06,24,07,18,11.40
2019,06,24,07,19,11.40
2019,06,24,07,20,11.40
2019,06,24,07,21,11.40
2019,06,24,07,22,11.50
2019,06,24,07,23,11.50
2019,06,24,07,24,11.50
2019,06,24,07,25,11.60
2019,06,24,07,26,11.60
2019,06,24,07,27,11.60
2019,06,24,07,28,11.70
2019,06,24,07,29,11.70
2019,06,24,07,30,11.70
2019,06,24,07,31,11.70
2019,06,24,07,32,11.80
2019,06,24,07,33,11.80
2019,06,24,07,34,11.80
2019,06,24,07,35,11.80
2019,06,24,07,36,11.80
2019,06,24,07,37,11.90
2019,06,24,07,38,11.90
2019,06,24,07,39,11.90
2019,06,24,07,40,12.00
2019,06,24,07,41,12.00
2019,06,24,07,42,12.10
2019,06,24,07,43,12.10
2019,06,24,07,44,12.20
2019,06,24,07,45,12.20
2019,06,24,07,46,12.30
2019,06,24,07,47,12.30
2019,06,24,07,48,12.40
2019,06,24,07,49,12.50
2019,06,24,07,50,12.70
2019,06,24,07,51,12.80
2019,06,24,07,52,12.90
2019,06,24,07,53,13.00
2019,06,24,07,54,13.20
2019,06,24,07,55,13.30
2019,06,24,07,56,13.40
2019,06,24,07,57,13.60
2019,06,24,07,58,13.70
2019,06,24,07,59,13.80
2019,06,24,08,00,13.90
2019,06,24,08,01,13.90
2019,06,24,08,02,13.90
2019,06,24,08,03,14.00
2019,06,24,08,04,14.10
2019,06,24,08,05,14.10
2019,06,24,08,06,14.10
2019,06,24,08,07,14.10
2019,06,24,08,08,14.20
2019,06,24,08,09,14.20
2019,06,24,08,10,14.20
2019,06,24,08,11,14.20
2019,06,24,08,12,14.20
2019,06,24,08,13,14.20
2019,06,24,08,14,14.20
2019,06,24,08,15,14.20
2019,06,24,08,16,14.20
2019,06,24,08,17,14.30
2019,06,24,08,18,14.30
2019,06,24,08,19,14.30
2019,06,24,08,20,14.30
2019,06,24,08,21,14.40
2019,06,24,08,22,14.40
2019,06,24,08,23,14.50
2019,06,24,08,24,14.50
2019,06,24,08,25,14.60
2019,06,24,08,26,14.70
2019,06,24,08,27,14.70
2019,06,24,08,28,14.80
2019,06,24,08,29,14.90
2019,06,24,08,30,14.90
2019,06,24,08,31,15.00
2019,06,24,08,32,15.00
2019,06,24,08,33,15.10
2019,06,24,08,34,15.10
2019,06,24,08,35,15.20
2019,06,24,08,36,15.20
2019,06,24,08,37,15.20
2019,06,24,08,38,15.20
2019,06,24,08,39,15.30
2019,06,24,08,40,15.30
2019,06,24,08,41,15.30
2019,06,24,08,42,15.40
2019,06,24,08,43,15.40
2019,06,24,08,44,15.50
2019,06,24,08,45,15.50
2019,06,24,08,46,15.60
2019,06,24,08,47,15.60
2019,06,24,08,48,15.70
2019,06,24,08,49,15.70
2019,06,24,08,50,15.70
2019,06,24,08,51,15.70
2019,06,24,08,52,15.70
2019,06,24,08,53,15.80
2019,06,24,08,54,15.80
2019,06,24,08,55,15.80
2019,06,24,08,56,15.90
2019,06,24,08,57,15.90
2019,06,24,08,58,16.00
2019,06,24,08,59,16.00
2019,06,24,09,00,16.10
2019,06,24,09,01,16.10
2019,06,24,09,02,16.20
2019,06,24,09,03,16.30
2019,06,24,09,04,16.40
2019,06,24,09,05,16.50
2019,06,24,09,06,16.50
2019,06,24,09,07,16.60
2019,06,24,09,08,16.70
2019,06,24,09,09,16.70
2019,06,24,09,10,16.70
2019,06,24,09,11,16.70
2019,06,24,09,12,16.70
2019,06,24,09,13,16.70
2019,06,24,09,14,16.70
2019,06,24,09,15,16.70
2019,06,24,09,16,16.70
2019,06,24,09,17,16.70
2019,06,24,09,18,16.80
2019,06,24,09,19,16.80
2019,06,24,09,20,16.90
2019,06,24,09,21,17.00
2019,06,24,09,22,17.10
2019,06,24,09,23,17.30
2019,06,24,09,24,17.40
2019,06,24,09,25,17.60
2019,06,24,09,26,17.70
2019,06,24,09,27,17.80
2019,06,24,09,28,17.90
2019,06,24,09,29,18.00
2019,06,24,09,30,18.10
2019,06,24,09,31,18.10
2019,06,24,09,32,18.20
2019,06,24,09,33,18.20
2019,06,24,09,34,18.30
2019,06,24,09,35,18.30
2019,06,24,09,36,18.30
2019,06,24,09,37,18.30
2019,06,24,09,38,18.20
2019,06,24,09,39,18.20
2019,06,24,09,40,18.20
2019,06,24,09,41,18.20
2019,06,24,09,42,18.20
2019,06,24,09,43,18.20
2019,06,24,09,44,18.20
2019,06,24,09,45,18.20
2019,06,24,09,46,18.20
2019,06,24,09,47,18.20
2019,06,24,09,48,18.30
2019,06,24,09,49,18.30
2019,06,24,09,50,18.40
2019,06,24,09,51,18.40
2019,06,24,09,52,18.40
2019,06,24,09,53,18.40
2019,06,24,09,54,18.30
2019,06,24,09,55,18.20
2019,06,24,09,56,18.20
2019,06,24,09,57,18.10
2019,06,24,09,58,18.10
2019,06,24,09,59,18.10
2019,06,24,10,00,18.00
2019,06,24,10,01,18.00
2019,06,24,10,02,18.00
2019,06,24,10,03,18.10
2019,06,24,10,04,18.10
2019,06,24,10,05,18.20
2019,06,24,10,06,18.30
2019,06,24,10,07,18.40
2019,06,24,10,08,18.60
2019,06,24,10,09,18.70
2019,06,24,10,10,18.80
2019,06,24,10,11,18.90
2019,06,24,10,12,19.00
2019,06,24,10,13,19.10
2019,06,24,10,14,19.10
2019,06,24,10,15,19.20
2019,06,24,10,16,19.20
2019,06,24,10,17,19.20
2019,06,24,10,18,19.20
2019,06,24,10,19,19.20
2019,06,24,10,20,19.20
2019,06,24,10,21,19.20
2019,06,24,10,22,19.30
2019,06,24,10,23,19.40
2019,06,24,10,24,19.40
2019,06,24,10,25,19.40
2019,06,24,10,26,19.40
2019,06,24,10,27,19.30
2019,06,24,10,28,19.20
2019,06,24,10,29,19.10
2019,06,24,10,30,18.90
2019,06,24,10,31,18.80
2019,06,24,10,32,18.70
2019,06,24,10,33,18.60
2019,06,24,10,34,18.40
2019,06,24,10,35,18.30
2019,06,24,10,36,18.20
2019,06,24,10,37,18.10
2019,06,24,10,38,18.10
2019,06,24,10,39,18.10
2019,06,24,10,40,18.10
2019,06,24,10,41,18.20
2019,06,24,10,42,18.30
2019,06,24,10,43,18.40
2019,06,24,10,44,18.50
2019,06,24,10,45,18.60
2019,06,24,10,46,18.70
2019,06,24,10,47,18.70
2019,06,24,10,48,18.70
2019,06,24,10,49,18.70
2019,06,24,10,50,18.70
2019,06,24,10,51,18.60
2019,06,24,10,52,18.50
2019,06,24,10,53,18.50
2019,06,24,10,54,18.40
2019,06,24,10,55,18.30
2019,06,24,10,56,18.20
2019,06,24,10,57,18.00
2019,06,24,10,58,17.90
2019,06,24,10,59,17.80
2019,06,24,11,00,17.60
2019,06,24,11,01,17.50
2019,06,24,11,02,17.40
2019,06,24,11,03,17.20
2019,06,24,11,04,17.10
2019,06,24,11,05,17.10
2019,06,24,11,06,17.00
2019,06,24,11,07,16.90
2019,06,24,11,08,16.80
2019,06,24,11,09,16.70
2019,06,24,11,10,16.70
2019,06,24,11,11,16.60
2019,06,24,11,12,16.60
2019,06,24,11,13,16.50
2019,06,24,11,14,16.50
2019,06,24,11,15,16.40
2019,06,24,11,16,16.40
2019,06,24,11,17,16.30
2019,06,24,11,18,16.30
2019,06,24,11,19,16.30
2019,06,24,11,20,16.20
2019,06,24,11,21,16.20
2019,06,24,11,22,16.20
2019,06,24,11,23,16.20
2019,06,24,11,24,16.20
2019,06,24,11,25,16.20
2019,06,24,11,26,16.20
2019,06,24,11,27,16.30
2019,06,24,11,28,16.30
2019,06,24,11,29,16.30
2019,06,24,11,30,16.30
2019,06,24,11,31,16.30
2019,06,24,11,32,16.40
2019,06,24,11,33,16.40
2019,06,24,11,34,16.40
2019,06,24,11,35,16.50
2019,06,24,11,36,16.50
2019,06,24,11,37,16.50
2019,06,24,11,38,16.50
2019,06,24,11,39,16.60
2019,06,24,11,40,16.60
2019,06,24,11,41,16.70
2019,06,24,11,42,16.70
2019,06,24,11,43,16.80
2019,06,24,11,44,16.80
2019,06,24,11,45,16.90
2019,06,24,11,46,17.00
2019,06,24,11,47,17.10
2019,06,24,11,48,17.20
2019,06,24,11,49,17.40
2019,06,24,11,50,17.50
2019,06,24,11,51,17.50
2019,06,24,11,52,17.60
2019,06,24,11,53,17.70
2019,06,24,11,54,17.70
2019,06,24,11,55,17.70
2019,06,24,11,56,17.80
2019,06,24,11,57,17.80
2019,06,24,11,58,17.80
2019,06,24,11,59,17.80
2019,06,24,12,00,17.80
2019,06,24,12,01,17.70
2019,06,24,12,02,17.70
2019,06,24,12,03,17.70
2019,06,24,12,04,17.60
2019,06,24,12,05,17.60
2019,06,24,12,06,17.60
2019,06,24,12,07,17.60
2019,06,24,12,08,17.50
2019,06,24,12,09,17.50
2019,06,24,12,10,17.40
2019,06,24,12,11,17.30
2019,06,24,12,12,17.30
2019,06,24,12,13,17.20
2019,06,24,12,14,17.20
2019,06,24,12,15,17.10
2019,06,24,12,16,17.00
2019,06,24,12,17,17.00
2019,06,24,12,18,16.90
2019,06,24,12,19,16.80
2019,06,24,12,20,16.80
2019,06,24,12,21,16.80
2019,06,24,12,22,16.70
2019,06,24,12,23,16.70
2019,06,24,12,24,16.60
2019,06,24,12,25,16.50
2019,06,24,12,26,16.50
2019,06,24,12,27,16.50
2019,06,24,12,28,16.40
2019,06,24,12,29,16.40
2019,06,24,12,30,16.40
2019,06,24,12,31,16.40
2019,06,24,12,32,16.40
2019,06,24,12,33,16.40
2019,06,24,12,34,16.40
2019,06,24,12,35,16.40
2019,06,24,12,36,16.40
2019,06,24,12,37,16.50
2019,06,24,12,38,16.50
2019,06,24,12,39,16.50
2019,06,24,12,40,16.60
2019,06,24,12,41,16.60
2019,06,24,12,42,16.70
2019,06,24,12,43,16.80
2019,06,24,12,44,16.80
2019,06,24,12,45,16.80
2019,06,24,12,46,16.90
2019,06,24,12,47,16.90
2019,06,24,12,48,16.90
2019,06,24,12,49,17.00
2019,06,24,12,50,17.10
2019,06,24,12,51,17.10
2019,06,24,12,52,17.20
2019,06,24,12,53,17.20
2019,06,24,12,54,17.20
2019,06,24,12,55,17.30
2019,06,24,12,56,17.30
2019,06,24,12,57,17.40
2019,06,24,12,58,17.40
2019,06,24,12,59,17.50
2019,06,24,13,00,17.60
2019,06,24,13,01,17.60
2019,06,24,13,02,17.70
2019,06,24,13,03,17.70
2019,06,24,13,04,17.80
2019,06,24,13,05,17.90
2019,06,24,13,06,17.90
2019,06,24,13,07,18.00
2019,06,24,13,08,18.10
2019,06,24,13,09,18.10
2019,06,24,13,10,18.10
2019,06,24,13,11,18.10
2019,06,24,13,12,18.10
2019,06,24,13,13,18.00
2019,06,24,13,14,18.00
2019,06,24,13,15,17.90
2019,06,24,13,16,17.90
2019,06,24,13,17,17.90
2019,06,24,13,18,17.90
2019,06,24,13,19,18.00
2019,06,24,13,20,18.00
2019,06,24,13,21,18.00
2019,06,24,13,22,18.00
2019,06,24,13,23,18.00
2019,06,24,13,24,17.90
2019,06,24,13,25,17.90
2019,06,24,13,26,17.90
2019,06,24,13,27,17.90
2019,06,24,13,28,17.90
2019,06,24,13,29,17.90
2019,06,24,13,30,18.00
2019,06,24,13,31,18.00
2019,06,24,13,32,18.10
2019,06,24,13,33,18.10
2019,06,24,13,34,18.20
2019,06,24,13,35,18.20
2019,06,24,13,36,18.20
2019,06,24,13,37,18.20
2019,06,24,13,38,18.20
2019,06,24,13,39,18.20
2019,06,24,13,40,18.10
2019,06,24,13,41,18.10
2019,06,24,13,42,18.10
2019,06,24,13,43,18.10
2019,06,24,13,44,18.00
2019,06,24,13,45,17.90
2019,06,24,13,46,17.90
2019,06,24,13,47,17.90
2019,06,24,13,48,17.90
2019,06,24,13,49,17.90
2019,06,24,13,50,17.90
2019,06,24,13,51,18.00
2019,06,24,13,52,18.10
2019,06,24,13,53,18.20
2019,06,24,13,54,18.20
2019,06,24,13,55,18.30
2019,06,24,13,56,18.30
2019,06,24,13,57,18.30
2019,06,24,13,58,18.30
2019,06,24,13,59,18.30
2019,06,24,14,00,18.30
2019,06,24,14,01,18.30
2019,06,24,14,02,18.30
2019,06,24,14,03,18.30
2019,06,24,14,04,18.30
2019,06,24,14,05,18.30
2019,06,24,14,06,18.20
2019,06,24,14,07,18.20
2019,06,24,14,08,18.20
2019,06,24,14,09,18.20
2019,06,24,14,10,18.20
2019,06,24,14,11,18.20
2019,06,24,14,12,18.20
2019,06,24,14,13,18.30
2019,06,24,14,14,18.30
2019,06,24,14,15,18.30
2019,06,24,14,16,18.30
2019,06,24,14,17,18.30
2019,06,24,14,18,18.40
2019,06,24,14,19,18.60
2019,06,24,14,20,18.70
2019,06,24,14,21,18.80
2019,06,24,14,22,18.90
2019,06,24,14,23,19.00
2019,06,24,14,24,19.10
2019,06,24,14,25,19.10
2019,06,24,14,26,19.10
2019,06,24,14,27,19.10
2019,06,24,14,28,19.10
2019,06,24,14,29,19.10
2019,06,24,14,30,19.10
2019,06,24,14,31,19.20
2019,06,24,14,32,19.20
2019,06,24,14,33,19.30
2019,06,24,14,34,19.40
2019,06,24,14,35,19.40
2019,06,24,14,36,19.40
2019,06,24,14,37,19.40
2019,06,24,14,38,19.40
2019,06,24,14,39,19.40
2019,06,24,14,40,19.40
2019,06,24,14,41,19.40
2019,06,24,14,42,19.50
2019,06,24,14,43,19.60
2019,06,24,14,44,19.60
2019,06,24,14,45,19.70
2019,06,24,14,46,19.70
2019,06,24,14,47,19.80
2019,06,24,14,48,19.80
2019,06,24,14,49,19.80
2019,06,24,14,50,19.80
2019,06,24,14,51,19.80
2019,06,24,14,52,19.70
2019,06,24,14,53,19.70
2019,06,24,14,54,19.70
2019,06,24,14,55,19.60
2019,06,24,14,56,19.60
2019,06,24,14,57,19.60
2019,06,24,14,58,19.60
2019,06,24,14,59,19.70
2019,06,24,15,00,19.70
2019,06,24,15,01,19.70
2019,06,24,15,02,19.70
2019,06,24,15,03,19.70
2019,06,24,15,04,19.70
2019,06,24,15,05,19.60
2019,06,24,15,06,19.60
2019,06,24,15,07,19.60
2019,06,24,15,08,19.60
2019,06,24,15,09,19.60
2019,06,24,15,10,19.60
2019,06,24,15,11,19.60
2019,06,24,15,12,19.60
2019,06,24,15,13,19.50
2019,06,24,15,14,19.50
2019,06,24,15,15,19.40
2019,06,24,15,16,19.30
2019,06,24,15,17,19.20
2019,06,24,15,18,19.20
2019,06,24,15,19,19.10
2019,06,24,15,20,19.10
2019,06,24,15,21,19.20
2019,06,24,15,22,19.20
2019,06,24,15,23,19.20
2019,06,24,15,24,19.20
2019,06,24,15,25,19.30
2019,06,24,15,26,19.30
2019,06,24,15,27,19.40
2019,06,24,15,28,19.50
2019,06,24,15,29,19.50
2019,06,24,15,30,19.60
2019,06,24,15,31,19.60
2019,06,24,15,32,19.60
2019,06,24,15,33,19.60
2019,06,24,15,34,19.50
2019,06,24,15,35,19.50
2019,06,24,15,36,19.50
2019,06,24,15,37,19.60
2019,06,24,15,38,19.60
2019,06,24,15,39,19.70
2019,06,24,15,40,19.70
2019,06,24,15,41,19.70
2019,06,24,15,42,19.70
2019,06,24,15,43,19.70
2019,06,24,15,44,19.70
2019,06,24,15,45,19.80
2019,06,24,15,46,19.70
2019,06,24,15,47,19.70
2019,06,24,15,48,19.70
2019,06,24,15,49,19.70
2019,06,24,15,50,19.70
2019,06,24,15,51,19.60
2019,06,24,15,52,19.60
2019,06,24,15,53,19.50
2019,06,24,15,54,19.40
2019,06,24,15,55,19.40
2019,06,24,15,56,19.40
2019,06,24,15,57,19.40
2019,06,24,15,58,19.40
2019,06,24,15,59,19.40
2019,06,24,16,00,19.50
2019,06,24,16,01,19.50
2019,06,24,16,02,19.50
2019,06,24,16,03,19.50
2019,06,24,16,04,19.60
2019,06,24,16,05,19.60
2019,06,24,16,06,19.60
2019,06,24,16,07,19.60
2019,06,24,16,08,19.60
2019,06,24,16,09,19.70
2019,06,24,16,10,19.70
2019,06,24,16,11,19.80
2019,06,24,16,12,19.80
2019,06,24,16,13,19.90
2019,06,24,16,14,19.90
2019,06,24,16,15,19.90
2019,06,24,16,16,19.90
2019,06,24,16,17,19.90
2019,06,24,16,18,19.90
2019,06,24,16,19,19.90
2019,06,24,16,20,19.90
2019,06,24,16,21,20.00
2019,06,24,16,22,20.00
2019,06,24,16,23,20.00
2019,06,24,16,24,20.00
2019,06,24,16,25,20.10
2019,06,24,16,26,20.10
2019,06,24,16,27,20.10
2019,06,24,16,28,20.10
2019,06,24,16,29,20.10
2019,06,24,16,30,20.10
2019,06,24,16,31,20.10
2019,06,24,16,32,20.10
2019,06,24,16,33,20.10
2019,06,24,16,34,20.10
2019,06,24,16,35,20.10
2019,06,24,16,36,20.00
2019,06,24,16,37,20.00
2019,06,24,16,38,20.00
2019,06,24,16,39,20.00
2019,06,24,16,40,20.00
2019,06,24,16,41,20.00
2019,06,24,16,42,19.90
2019,06,24,16,43,19.90
2019,06,24,16,44,19.90
2019,06,24,16,45,19.80
2019,06,24,16,46,19.80
2019,06,24,16,47,19.80
2019,06,24,16,48,19.70
2019,06,24,16,49,19.70
2019,06,24,16,50,19.70
2019,06,24,16,51,19.70
2019,06,24,16,52,19.80
2019,06,24,16,53,19.80
2019,06,24,16,54,19.80
2019,06,24,16,55,19.90
2019,06,24,16,56,19.90
2019,06,24,16,57,20.00
2019,06,24,16,58,20.00
2019,06,24,16,59,20.10
2019,06,24,17,00,20.10
2019,06,24,17,01,20.10
2019,06,24,17,02,20.10
2019,06,24,17,03,20.10
2019,06,24,17,04,20.10
2019,06,24,17,05,20.20
2019,06,24,17,06,20.20
2019,06,24,17,07,20.10
2019,06,24,17,08,20.10
2019,06,24,17,09,20.10
2019,06,24,17,10,20.20
2019,06,24,17,11,20.20
2019,06,24,17,12,20.20
2019,06,24,17,13,20.20
2019,06,24,17,14,20.20
2019,06,24,17,15,20.30
2019,06,24,17,16,20.30
2019,06,24,17,17,20.30
2019,06,24,17,18,20.30
2019,06,24,17,19,20.30
2019,06,24,17,20,20.30
2019,06,24,17,21,20.30
2019,06,24,17,22,20.30
2019,06,24,17,23,20.30
2019,06,24,17,24,20.30
2019,06,24,17,25,20.40
2019,06,24,17,26,20.40
2019,06,24,17,27,20.40
2019,06,24,17,28,20.50
2019,06,24,17,29,20.60
2019,06,24,17,30,20.60
2019,06,24,17,31,20.60
2019,06,24,17,32,20.60
2019,06,24,17,33,20.60
2019,06,24,17,34,20.60
2019,06,24,17,35,20.60